User: anonymous   Login
Location: Unspecified
(0.0000°N, 0.0000°E)
Time: 20:09:22
(UTC+00:00)
Language:

STARLINK-31162 - Orbit

View from above orbital plane
View from above orbital plane
View from above satellite
View from above satellite

Ground track
Ground track

The orbit is defined by the following mean orbital elements,

1 58791U          26145.55649589 +.00000000 +00000-0 +24875-4 0 00002
2 58791  43.0042  90.9946 0001175 275.3753  84.6964 15.27577413    07
Epoch (UTC): 25 May 2026 13:21:21
Eccentricity: 0.0001175
inclination: 43.0042°
perigee height: 482 km
apogee height: 484 km
right ascension of ascending node: 90.9946°
argument of perigee: 275.3753°
revolutions per day: 15.27577413
mean anomaly at epoch: 84.6964°

The dashed part of the orbit path shows where the satellite is in the earth's shadow,  

DLR